Regional Weather Roundup
Issued by NWS

Home | Current Version | Previous Version | Graphics & Text | Print | Product List | Glossary On
Versions: 1 2 3 4 5 6 7 8 9 10 11 12 13 14 15 16 17 18 19 20 21 22 23 24 25 26 27 28
000
ASUS45 KBOU 191410
RWRCO

WEATHER ROUNDUP FOR COLORADO
NATIONAL WEATHER SERVICE DENVER/BOULDER CO
800 AM MDT SAT MAY 19 2018

NOTE: "FAIR" INDICATES FEW OR NO CLOUDS BELOW 12000 FEET WITH NO
SIGNIFICANT WEATHER AND/OR OBSTRUCTIONS TO VISIBILITY.

COZ001>005-013-030-031-191500-
...NORTHWEST COLORADO...

CITY           SKY/WX    TMP DP  RH WIND       PRES   REMARKS
CRAIG          FAIR      46  41  82 CALM      30.07S
HAYDEN         FAIR      42  37  82 CALM      30.09R
MEEKER         FAIR      45  36  70 NE3       30.07S
RANGELY        FAIR      53  41  65 E9        30.04R
RABBIT EARS PA FOG       32  32 100 E6        30.19S VSB<1/4 WCI  26
STEAMBOAT SPGS FAIR      41  36  83 CALM      30.06S
WALDEN         CLOUDY    41  36  81 CALM      30.14S
$$

COZ006>008-011-191500-
...WEST CENTRAL VALLEYS...

CITY           SKY/WX    TMP DP  RH WIND       PRES   REMARKS
GRAND JUNCTION FAIR      60  36  40 NW5       29.96R
MONTROSE       FAIR      53  26  35 SE7       30.02S
EAGLE          FAIR      42  31  64 CALM      30.08F
RIFLE          FAIR      52  38  58 CALM      30.02R
DELTA          FAIR      58  29  32 E5        29.99S
NUCLA          NOT AVBL
$$

COZ017>023-064>068-191500-
...SOUTHWEST COLORADO...

CITY           SKY/WX    TMP DP  RH WIND       PRES   REMARKS
DURANGO        FAIR      48  21  34 CALM      30.04S
CORTEZ         FAIR      53  26  35 NE7       30.02S
PAGOSA SPRINGS FAIR      51  15  24 CALM      30.09S
TELLURIDE      FAIR      45  24  42 SE3       30.16S
WOLF CREEK PAS FAIR      39  12  33 CALM      30.31S
$$

COZ009-010-012-014-032>034-037-058>063-191500-
...CENTRAL COLORADO...

CITY           SKY/WX    TMP DP  RH WIND       PRES   REMARKS
ASPEN          FAIR      47  21  35 CALM      30.06F
BUENA VISTA    PTSUNNY   45  37  71 CALM      30.14S
COPPER MTN     PTSUNNY   37  27  65 S5        30.25S
BERTHOUD PASS  CLOUDY    28  18  64 N5        30.26S WCI  23
COTTONWOOD PAS FAIR      46  37  71 CALM      30.19S
GUNNISON       FAIR      38  23  55 CALM      30.12S
GRANBY         FAIR      37  36  94 CALM      30.13S
KREMMLING      FAIR      45  37  76 CALM      30.12S
LEADVILLE      FAIR      34  32  92 CALM      30.18R
MONARCH PASS   FOG       30  30 100 MISG      30.36S VSB<1/4
SALIDA         CLOUDY    47  37  66 CALM      30.20S
SUNLIGHT       FAIR      41  23  48 SE3       30.23R
WILKERSON PASS FOG       32  32 100 CALM      30.26S VSB<1/4
$$

COZ069>075-191500-
...SAN LUIS VALLEY/SANGRE DE CRISTO MOUNTAINS...

CITY           SKY/WX    TMP DP  RH WIND       PRES   REMARKS
ALAMOSA        FAIR      47  31  53 VRB3      30.08S
DEL NORTE      FAIR      49  17  28 W10       30.10S
LA VETA PASS   SNOW      37  36  93 NE8       30.31S VSB<1/4
SAGUACHE       NOT AVBL
$$

COZ035-036-038>040-191500-
...NORTHERN COLORADO FRONT RANGE...

CITY           SKY/WX    TMP DP  RH WIND       PRES   REMARKS
DENVER INTL AP LGT RAIN  48  46  93 N13       30.07S
AURORA         LGT RAIN  47  47 100 N10       30.08S
FRONT RANGE AP CLOUDY    50  48  93 N10       30.07S
ERIE MUNI ARPT LGT RAIN  50  47  91 N6        30.13R
BOULDER MUN AP CLOUDY    50  46  87 CALM      30.07S
CENTENNIAL     CLOUDY    47  45  93 N7        30.09R
BROOMFIELD     CLOUDY    48  46  93 N5        30.09R
FORT COLLINS   LGT RAIN  49  47  93 N13       30.08R
LONGMONT       LGT RAIN  52  48  87 NE8       30.10R
$$

COZ041-046-047-076>085-087-088-191500-
...PIKES PEAK/PALMER DIVIDE AND SOUTHERN FOOTHILLS...

CITY           SKY/WX    TMP DP  RH WIND       PRES   REMARKS
COLO. SPRINGS  PTSUNNY   50  44  80 NW16G28   30.07S
A. F. ACADEMY  PTSUNNY   48  44  85 N17       30.08F
SCHRIEVER AFB  NOT AVBL
CHEYENNE MTN   PTSUNNY   47  42  81 N3        30.04S
ELLICOTT         N/A    N/A N/A N/A N20G25    30.05R
FALCON         CLOUDY    47  43  85 N13G21    30.10S
FORT CARSON    PTSUNNY   54  42  66 N10       30.05S
LIMON          CLOUDY    48  46  93 NW17G25   30.04R
MONUMENT HILL  DRIZZLE   41  41 100 NW13      30.12S
CANON CITY     CLOUDY    54  50  87 E9        30.04F
WALSENBURG     CLOUDY    54  46  76 MISG      30.09S
TRINIDAD       CLOUDY    53  48  83 N9        30.09R
$$

COZ042>045-048>051-090-091-191500-
...NORTHEAST COLORADO...

CITY           SKY/WX    TMP DP  RH WIND       PRES   REMARKS
GREELEY ARPT   LGT RAIN  49  47  93 N12       30.07S
AKRON          RAIN      46  45  96 NW28G40   29.96R FOG
BURLINGTON     FAIR      54  49  83 W22G38    29.95F
WRAY           CLOUDY    55  50  82 E9        29.88R
YUMA           LGT RAIN  48  39  71 W20       29.88R
STERLING       RAIN      46  45  93 N26G35    29.97R
HOLYOKE        RAIN      55  52  88 E15       29.92R
FORT MORGAN    LGT RAIN  46  44  91 N21       30.03R
$$

COZ086-089-092>099-191500-
...SOUTHEAST COLORADO...

CITY           SKY/WX    TMP DP  RH WIND       PRES   REMARKS
PUEBLO         CLOUDY    58  47  66 E9        30.03S
LA JUNTA       CLOUDY    56  51  84 N8        30.02R
LAMAR          FAIR      56  52  86 MISG      29.97R
SPRINGFIELD      N/A     54  52  93 NW8       30.00R
$$




USA.gov is the U.S. government's official web portal to all federal, state and local government web resources and services.